Regional Weather Roundup
Issued by NWS

Home | Current Version | Previous Version | Graphics & Text | Print | Product List | Glossary Off
Versions: 1 2 3 4 5 6 7 8 9 10 11 12 13 14 15 16 17 18 19 20 21 22 23 24 25 26 27 28 29 30 31 32 33 34 35 36 37 38 39 40 41 42 43 44 45 46 47 48 49 50

000
ASUS43 KTOP 271859
RWRKS

WEATHER ROUNDUP FOR KANSAS
NATIONAL WEATHER SERVICE GOODLAND KS
100 PM CST SAT DEC 27 2014

NOTE:  "FAIR" INDICATES FEW OR NO CLOUDS BELOW 12,000 FEET WITH NO
SIGNIFICANT WEATHER AND/OR OBSTRUCTIONS TO VISIBILITY.

KSZ001>006-013>018-027>032-041>047-272000-
NORTHWEST KANSAS

CITY           SKY/WX    TMP DP  RH WIND       PRES   REMARKS
GOODLAND       SUNNY     24  15  68 NW15      30.19F WCI  11
HAYS           SUNNY     27  12  54 NW9       30.27F
HILL CITY      SUNNY     25  16  68 NW7       30.27F
RUSSELL        SUNNY     29  20  69 NW12      30.26F WCI  19
$$

KSZ061>065-074>080-084>089-272000-
SOUTHWEST KANSAS

CITY           SKY/WX    TMP DP  RH WIND       PRES   REMARKS
DODGE CITY     SUNNY     31  16  54 NW10      30.26F WCI  22
ELKHART          N/A     29  16  58 NW6         N/A
GARDEN CITY    SUNNY     28  18  66 W10       30.25F WCI  19
GREAT BEND     MOSUNNY   30  18  59 NW13      30.28F WCI  20
LIBERAL        SUNNY     30  18  59 NW12      30.29F WCI  21
$$

KSZ066>073-081>083-090>101-272000-
SOUTHEAST KANSAS

CITY           SKY/WX    TMP DP  RH WIND       PRES   REMARKS
CHANUTE        PTSUNNY   33  22  63 NW13      30.26F WCI  24
COFFEYVILLE    CLOUDY    33  22  63 N12       30.28F WCI  24
HUTCHINSON     MOSUNNY   33  15  47 NW13      30.27F WCI  24
MEDICINE LODGE   N/A     35  16  45 N10G21    30.29F WCI  27
NEWTON         SUNNY     30  14  51 NW14      30.28F WCI  20
PARSONS        CLOUDY    33  23  66 NW10      30.28F WCI  25
WICHITA INTL   MOSUNNY   34  16  47 N15G23    30.27F WCI  24
WICHITA JABRA  SUNNY     33  16  49 NW13      30.26F WCI  24
WICHITA MCCONL SUNNY     32  16  51 N14G21    30.27F WCI  22
WINFIELD       MOSUNNY   34  17  50 N14       30.28F WCI  25
$$

KSZ007>012-019>026-033>040-048>060-102>105-272000-
NORTHEAST KANSAS

CITY           SKY/WX    TMP DP  RH WIND       PRES   REMARKS
CONCORDIA      SUNNY     29  19  66 NW9       30.26F
EMPORIA        SUNNY     32  17  54 NW12      30.25F WCI  23
LAWRENCE       PTSUNNY   31  21  66 NW13      30.25F WCI  21
MANHATTAN      SUNNY     32  16  51 NW9       30.27F
OLATHE IND     CLOUDY    31  22  69 NW10      30.23F WCI  22
OLATHE EXE     CLOUDY    32  23  69 NW13      30.21F WCI  22
SALINA         MOSUNNY   32  17  54 NW10      30.29F WCI  24
TOPEKA BILLARD MOSUNNY   35  20  54 NW12G20   30.26F WCI  27
TOPEKA FORBES  SUNNY     33  18  53 NW15      30.24F WCI  23
$$


USA.gov is the U.S. government's official web portal to all federal, state and local government web resources and services.